Saint Bonnet de Bellac- Haute Vienne - France
Donnes mto: dimanche, 30/10/2011
Date Horaire Temp. E. Hum. E. P.atmo. Pluie Vent Direction Direction Ensoleilleme Solaire P. de rose Temp au vent Rafales
30/10/2011 00:00 11,6 C 92 % 1023,2 hPa 0,0 mm 0,0 km/h (0 Bft) S-SO 202 0 min 0 W/m 10,3 C 11,6 C 2,9 km/h (1 Bft)
30/10/2011 00:05 11,7 C 92 % 1023,2 hPa 0,0 mm 0,0 km/h (0 Bft) S-SE 157 0 min 0 W/m 10,4 C 11,7 C 0,0 km/h (0 Bft)
30/10/2011 00:10 11,8 C 92 % 1023,2 hPa 0,0 mm 0,7 km/h (0 Bft) S 180 0 min 0 W/m 10,5 C 11,8 C 0,7 km/h (0 Bft)
30/10/2011 00:15 11,8 C 93 % 1023,1 hPa 0,0 mm 1,4 km/h (1 Bft) S 180 0 min 0 W/m 10,7 C 11,8 C 4,0 km/h (1 Bft)
30/10/2011 00:20 11,9 C 93 % 1023,2 hPa 0,0 mm 0,0 km/h (0 Bft) S 180 0 min 0 W/m 10,8 C 11,9 C 3,2 km/h (1 Bft)
30/10/2011 00:25 12,0 C 93 % 1023,2 hPa 0,0 mm 0,0 km/h (0 Bft) S 180 0 min 0 W/m 10,9 C 12,0 C 0,0 km/h (0 Bft)
30/10/2011 00:30 12,1 C 93 % 1023,2 hPa 0,0 mm 0,0 km/h (0 Bft) S 180 0 min 0 W/m 11,0 C 12,1 C 0,0 km/h (0 Bft)
30/10/2011 00:35 12,2 C 93 % 1023,1 hPa 0,0 mm 0,0 km/h (0 Bft) S 180 0 min 0 W/m 11,1 C 12,2 C 0,0 km/h (0 Bft)
30/10/2011 00:40 12,3 C 93 % 1023,1 hPa 0,0 mm 0,0 km/h (0 Bft) S 180 0 min 0 W/m 11,2 C 12,3 C 0,0 km/h (0 Bft)
30/10/2011 00:45 12,3 C 93 % 1023,1 hPa 0,0 mm 0,0 km/h (0 Bft) S-SO 202 0 min 0 W/m 11,2 C 12,3 C 0,0 km/h (0 Bft)
30/10/2011 00:50 12,4 C 94 % 1023,2 hPa 0,0 mm 0,0 km/h (0 Bft) S-SO 202 0 min 0 W/m 11,5 C 12,4 C 0,0 km/h (0 Bft)
30/10/2011 00:55 12,4 C 93 % 1023,1 hPa 0,0 mm 0,0 km/h (0 Bft) S-SO 202 0 min 0 W/m 11,3 C 12,4 C 0,0 km/h (0 Bft)
30/10/2011 01:00 12,4 C 93 % 1023,1 hPa 0,0 mm 0,0 km/h (0 Bft) S-SO 202 0 min 0 W/m 11,3 C 12,4 C 0,0 km/h (0 Bft)
30/10/2011 01:05 12,5 C 93 % 1023,2 hPa 0,0 mm 0,0 km/h (0 Bft) S-SO 202 0 min 0 W/m 11,4 C 12,5 C 0,0 km/h (0 Bft)
30/10/2011 01:10 12,5 C 93 % 1023,2 hPa 0,0 mm 0,0 km/h (0 Bft) S-SO 202 0 min 0 W/m 11,4 C 12,5 C 0,0 km/h (0 Bft)
30/10/2011 01:15 12,5 C 93 % 1023,2 hPa 0,0 mm 0,0 km/h (0 Bft) S-SO 202 0 min 0 W/m 11,4 C 12,5 C 0,0 km/h (0 Bft)
30/10/2011 01:20 12,6 C 93 % 1023,2 hPa 0,0 mm 0,0 km/h (0 Bft) S-SO 202 0 min 0 W/m 11,5 C 12,6 C 0,0 km/h (0 Bft)
30/10/2011 01:25 12,6 C 93 % 1023,0 hPa 0,0 mm 0,0 km/h (0 Bft) S-SO 202 0 min 0 W/m 11,5 C 12,6 C 0,0 km/h (0 Bft)
30/10/2011 01:30 12,6 C 93 % 1023,1 hPa 0,0 mm 0,0 km/h (0 Bft) S-SO 202 0 min 0 W/m 11,5 C 12,6 C 0,0 km/h (0 Bft)
30/10/2011 01:35 12,7 C 93 % 1023,1 hPa 0,0 mm 0,0 km/h (0 Bft) S-SO 202 0 min 0 W/m 11,6 C 12,7 C 0,0 km/h (0 Bft)
30/10/2011 01:40 12,7 C 93 % 1023,1 hPa 0,0 mm 0,0 km/h (0 Bft) S-SO 202 0 min 0 W/m 11,6 C 12,7 C 0,0 km/h (0 Bft)
30/10/2011 01:45 12,6 C 93 % 1023,1 hPa 0,0 mm 0,0 km/h (0 Bft) S-SO 202 0 min 0 W/m 11,5 C 12,6 C 0,0 km/h (0 Bft)
30/10/2011 01:50 12,7 C 93 % 1023,1 hPa 0,0 mm 0,0 km/h (0 Bft) S-SO 202 0 min 0 W/m 11,6 C 12,7 C 0,0 km/h (0 Bft)
30/10/2011 01:55 12,7 C 93 % 1023,0 hPa 0,0 mm 0,0 km/h (0 Bft) S-SO 202 0 min 0 W/m 11,6 C 12,7 C 0,0 km/h (0 Bft)
30/10/2011 02:00 12,8 C 93 % 1023,1 hPa 0,0 mm 0,0 km/h (0 Bft) S-SO 202 0 min 0 W/m 11,7 C 12,8 C 0,0 km/h (0 Bft)
30/10/2011 02:05 12,8 C 93 % 1023,0 hPa 0,0 mm 0,0 km/h (0 Bft) S-SO 202 0 min 0 W/m 11,7 C 12,8 C 0,0 km/h (0 Bft)
30/10/2011 02:10 12,8 C 93 % 1023,0 hPa 0,0 mm 0,0 km/h (0 Bft) S-SO 202 0 min 0 W/m 11,7 C 12,8 C 0,0 km/h (0 Bft)
30/10/2011 02:15 12,8 C 93 % 1022,9 hPa 0,0 mm 0,0 km/h (0 Bft) S-SO 202 0 min 0 W/m 11,7 C 12,8 C 0,0 km/h (0 Bft)
30/10/2011 02:20 12,8 C 93 % 1022,9 hPa 0,0 mm 0,0 km/h (0 Bft) S-SO 202 0 min 0 W/m 11,7 C 12,8 C 0,0 km/h (0 Bft)
30/10/2011 02:25 12,8 C 93 % 1022,8 hPa 0,0 mm 0,0 km/h (0 Bft) S-SO 202 0 min 0 W/m 11,7 C 12,8 C 0,0 km/h (0 Bft)
30/10/2011 02:30 12,9 C 93 % 1022,8 hPa 0,0 mm 0,0 km/h (0 Bft) S-SO 202 0 min 0 W/m 11,8 C 12,9 C 0,0 km/h (0 Bft)
30/10/2011 02:35 12,9 C 93 % 1022,8 hPa 0,0 mm 0,0 km/h (0 Bft) S-SO 202 0 min 0 W/m 11,8 C 12,9 C 0,0 km/h (0 Bft)
30/10/2011 02:40 12,9 C 93 % 1022,7 hPa 0,0 mm 0,7 km/h (0 Bft) S 180 0 min 0 W/m 11,8 C 12,9 C 0,7 km/h (0 Bft)
30/10/2011 02:45 12,9 C 93 % 1022,7 hPa 0,0 mm 0,0 km/h (0 Bft) S 180 0 min 0 W/m 11,8 C 12,9 C 0,0 km/h (0 Bft)
30/10/2011 02:50 12,9 C 93 % 1022,8 hPa 0,0 mm 0,0 km/h (0 Bft) S 180 0 min 0 W/m 11,8 C 12,9 C 0,0 km/h (0 Bft)
30/10/2011 02:55 12,9 C 93 % 1022,8 hPa 0,0 mm 1,1 km/h (1 Bft) S 180 0 min 0 W/m 11,8 C 12,9 C 1,1 km/h (1 Bft)
30/10/2011 02:02 12,9 C 93 % 1022,8 hPa 0,0 mm 0,0 km/h (0 Bft) S 180 0 min 0 W/m 11,8 C 12,9 C 2,9 km/h (1 Bft)
30/10/2011 02:05 13,0 C 93 % 1022,8 hPa 0,0 mm 0,0 km/h (0 Bft) S 180 0 min 0 W/m 11,9 C 13,0 C 0,0 km/h (0 Bft)
30/10/2011 02:10 13,1 C 93 % 1022,7 hPa 0,0 mm 0,0 km/h (0 Bft) S 180 0 min 0 W/m 12,0 C 13,1 C 0,0 km/h (0 Bft)
30/10/2011 02:15 13,1 C 93 % 1022,6 hPa 0,0 mm 0,0 km/h (0 Bft) S 180 0 min 0 W/m 12,0 C 13,1 C 3,2 km/h (1 Bft)
30/10/2011 02:20 13,1 C 93 % 1022,7 hPa 0,0 mm 0,0 km/h (0 Bft) S 180 0 min 0 W/m 12,0 C 13,1 C 0,0 km/h (0 Bft)
30/10/2011 02:25 13,1 C 93 % 1022,7 hPa 0,0 mm 0,0 km/h (0 Bft) S 180 0 min 0 W/m 12,0 C 13,1 C 0,0 km/h (0 Bft)
30/10/2011 02:30 13,1 C 93 % 1022,7 hPa 0,0 mm 0,0 km/h (0 Bft) S 180 0 min 0 W/m 12,0 C 13,1 C 0,0 km/h (0 Bft)
30/10/2011 02:35 13,1 C 93 % 1022,7 hPa 0,0 mm 0,0 km/h (0 Bft) S 180 0 min 0 W/m 12,0 C 13,1 C 0,0 km/h (0 Bft)
30/10/2011 02:40 13,1 C 92 % 1022,6 hPa 0,0 mm 0,0 km/h (0 Bft) S 180 0 min 0 W/m 11,8 C 13,1 C 0,0 km/h (0 Bft)
30/10/2011 02:45 13,0 C 92 % 1022,6 hPa 0,0 mm 0,0 km/h (0 Bft) S 180 0 min 0 W/m 11,7 C 13,0 C 0,0 km/h (0 Bft)
30/10/2011 02:50 13,1 C 92 % 1022,6 hPa 0,0 mm 0,0 km/h (0 Bft) S 180 0 min 0 W/m 11,8 C 13,1 C 0,0 km/h (0 Bft)
30/10/2011 02:55 13,1 C 92 % 1022,5 hPa 0,0 mm 0,0 km/h (0 Bft) S 180 0 min 0 W/m 11,8 C 13,1 C 0,0 km/h (0 Bft)
30/10/2011 03:00 13,0 C 92 % 1022,5 hPa 0,0 mm 0,0 km/h (0 Bft) S 180 0 min 0 W/m 11,7 C 13,0 C 0,0 km/h (0 Bft)
30/10/2011 03:05 12,9 C 92 % 1022,5 hPa 0,0 mm 0,0 km/h (0 Bft) S 180 0 min 0 W/m 11,6 C 12,9 C 0,0 km/h (0 Bft)
30/10/2011 03:10 12,9 C 92 % 1022,4 hPa 0,0 mm 0,0 km/h (0 Bft) S 180 0 min 0 W/m 11,6 C 12,9 C 0,0 km/h (0 Bft)
30/10/2011 03:15 12,9 C 92 % 1022,4 hPa 0,0 mm 0,0 km/h (0 Bft) S 180 0 min 0 W/m 11,6 C 12,9 C 0,0 km/h (0 Bft)
30/10/2011 03:20 12,9 C 92 % 1022,4 hPa 0,0 mm 0,0 km/h (0 Bft) S 180 0 min 0 W/m 11,6 C 12,9 C 0,0 km/h (0 Bft)
30/10/2011 03:25 12,9 C 92 % 1022,4 hPa 0,0 mm 0,0 km/h (0 Bft) S 180 0 min 0 W/m 11,6 C 12,9 C 0,0 km/h (0 Bft)
30/10/2011 03:30 12,9 C 92 % 1022,5 hPa 0,0 mm 0,0 km/h (0 Bft) S 180 0 min 0 W/m 11,6 C 12,9 C 0,0 km/h (0 Bft)
30/10/2011 03:35 12,9 C 92 % 1022,5 hPa 0,0 mm 0,0 km/h (0 Bft) S 180 0 min 0 W/m 11,6 C 12,9 C 0,0 km/h (0 Bft)
30/10/2011 03:40 12,8 C 92 % 1022,4 hPa 0,0 mm 0,0 km/h (0 Bft) S 180 0 min 0 W/m 11,5 C 12,8 C 0,0 km/h (0 Bft)
30/10/2011 03:45 12,8 C 92 % 1022,4 hPa 0,0 mm 0,0 km/h (0 Bft) S 180 0 min 0 W/m 11,5 C 12,8 C 0,0 km/h (0 Bft)
30/10/2011 03:50 12,8 C 92 % 1022,3 hPa 0,0 mm 0,0 km/h (0 Bft) S 180 0 min 0 W/m 11,5 C 12,8 C 0,0 km/h (0 Bft)
30/10/2011 03:55 12,8 C 92 % 1022,2 hPa 0,0 mm 0,0 km/h (0 Bft) S 180 0 min 0 W/m 11,5 C 12,8 C 0,0 km/h (0 Bft)
30/10/2011 04:00 12,8 C 92 % 1022,2 hPa 0,0 mm 0,0 km/h (0 Bft) S 180 0 min 0 W/m 11,5 C 12,8 C 0,0 km/h (0 Bft)
30/10/2011 04:05 12,8 C 92 % 1022,2 hPa 0,0 mm 0,0 km/h (0 Bft) S 180 0 min 0 W/m 11,5 C 12,8 C 0,0 km/h (0 Bft)
30/10/2011 04:10 12,8 C 92 % 1022,2 hPa 0,0 mm 0,0 km/h (0 Bft) S 180 0 min 0 W/m 11,5 C 12,8 C 0,0 km/h (0 Bft)
30/10/2011 04:15 12,8 C 92 % 1022,2 hPa 0,0 mm 0,0 km/h (0 Bft) S 180 0 min 0 W/m 11,5 C 12,8 C 0,0 km/h (0 Bft)
30/10/2011 04:20 12,8 C 92 % 1022,3 hPa 0,0 mm 0,0 km/h (0 Bft) S 180 0 min 0 W/m 11,5 C 12,8 C 0,0 km/h (0 Bft)
30/10/2011 04:25 12,8 C 92 % 1022,2 hPa 0,0 mm 0,0 km/h (0 Bft) S 180 0 min 0 W/m 11,5 C 12,8 C 0,0 km/h (0 Bft)
30/10/2011 04:30 12,8 C 92 % 1022,2 hPa 0,0 mm 0,0 km/h (0 Bft) S 180 0 min 0 W/m 11,5 C 12,8 C 0,0 km/h (0 Bft)
30/10/2011 04:35 12,8 C 92 % 1022,2 hPa 0,0 mm 0,0 km/h (0 Bft) S 180 0 min 0 W/m 11,5 C 12,8 C 0,0 km/h (0 Bft)
30/10/2011 04:40 12,8 C 92 % 1022,1 hPa 0,0 mm 0,0 km/h (0 Bft) S 180 0 min 0 W/m 11,5 C 12,8 C 0,0 km/h (0 Bft)
30/10/2011 04:45 12,8 C 92 % 1022,1 hPa 0,0 mm 0,0 km/h (0 Bft) S 180 0 min 0 W/m 11,5 C 12,8 C 0,0 km/h (0 Bft)
30/10/2011 04:50 12,8 C 92 % 1022,2 hPa 0,0 mm 0,0 km/h (0 Bft) O-SO 247 0 min 0 W/m 11,5 C 12,8 C 0,0 km/h (0 Bft)
30/10/2011 04:55 12,8 C 92 % 1022,2 hPa 0,0 mm 0,0 km/h (0 Bft) O-SO 247 0 min 0 W/m 11,5 C 12,8 C 0,0 km/h (0 Bft)
30/10/2011 05:00 12,7 C 92 % 1022,3 hPa 0,0 mm 0,7 km/h (0 Bft) S-SE 157 0 min 0 W/m 11,4 C 12,7 C 0,7 km/h (0 Bft)
30/10/2011 05:05 12,6 C 93 % 1022,2 hPa 0,0 mm 0,0 km/h (0 Bft) S-SE 157 0 min 0 W/m 11,5 C 12,6 C 0,0 km/h (0 Bft)
30/10/2011 05:10 12,6 C 93 % 1022,2 hPa 0,0 mm 0,0 km/h (0 Bft) S-SE 157 0 min 0 W/m 11,5 C 12,6 C 0,0 km/h (0 Bft)
30/10/2011 05:15 12,6 C 93 % 1022,3 hPa 0,0 mm 0,0 km/h (0 Bft) S-SE 157 0 min 0 W/m 11,5 C 12,6 C 0,0 km/h (0 Bft)
30/10/2011 05:20 12,6 C 93 % 1022,2 hPa 0,0 mm 0,0 km/h (0 Bft) S-SE 157 0 min 0 W/m 11,5 C 12,6 C 0,0 km/h (0 Bft)
30/10/2011 05:25 12,6 C 93 % 1022,3 hPa 0,0 mm 0,0 km/h (0 Bft) S-SE 157 0 min 0 W/m 11,5 C 12,6 C 0,0 km/h (0 Bft)
30/10/2011 05:30 12,6 C 93 % 1022,3 hPa 0,0 mm 0,0 km/h (0 Bft) S-SE 157 0 min 0 W/m 11,5 C 12,6 C 0,0 km/h (0 Bft)
30/10/2011 05:35 12,6 C 93 % 1022,3 hPa 0,0 mm 0,0 km/h (0 Bft) S-SE 157 0 min 0 W/m 11,5 C 12,6 C 0,0 km/h (0 Bft)
30/10/2011 05:40 12,6 C 93 % 1022,3 hPa 0,0 mm 0,0 km/h (0 Bft) S-SE 157 0 min 0 W/m 11,5 C 12,6 C 0,0 km/h (0 Bft)
30/10/2011 05:45 12,6 C 93 % 1022,3 hPa 0,0 mm 0,0 km/h (0 Bft) S-SE 157 0 min 0 W/m 11,5 C 12,6 C 0,0 km/h (0 Bft)
30/10/2011 05:50 12,6 C 93 % 1022,3 hPa 0,0 mm 0,0 km/h (0 Bft) S-SE 157 0 min 0 W/m 11,5 C 12,6 C 0,0 km/h (0 Bft)
30/10/2011 05:55 12,5 C 93 % 1022,3 hPa 0,0 mm 0,0 km/h (0 Bft) S-SE 157 0 min 0 W/m 11,4 C 12,5 C 0,0 km/h (0 Bft)
30/10/2011 06:00 12,5 C 93 % 1022,3 hPa 0,0 mm 0,0 km/h (0 Bft) S-SE 157 0 min 0 W/m 11,4 C 12,5 C 0,0 km/h (0 Bft)
30/10/2011 06:05 12,5 C 93 % 1022,3 hPa 0,0 mm 0,0 km/h (0 Bft) S-SE 157 0 min 0 W/m 11,4 C 12,5 C 0,0 km/h (0 Bft)
30/10/2011 06:10 12,5 C 93 % 1022,3 hPa 0,0 mm 0,0 km/h (0 Bft) S-SE 157 0 min 0 W/m 11,4 C 12,5 C 0,0 km/h (0 Bft)
30/10/2011 06:15 12,5 C 93 % 1022,3 hPa 0,0 mm 0,0 km/h (0 Bft) S-SE 157 0 min 0 W/m 11,4 C 12,5 C 0,0 km/h (0 Bft)
30/10/2011 06:20 12,4 C 93 % 1022,3 hPa 0,0 mm 0,0 km/h (0 Bft) S-SE 157 0 min 0 W/m 11,3 C 12,4 C 0,0 km/h (0 Bft)
30/10/2011 06:25 12,4 C 93 % 1022,3 hPa 0,0 mm 0,0 km/h (0 Bft) S-SE 157 0 min 0 W/m 11,3 C 12,4 C 0,0 km/h (0 Bft)
30/10/2011 06:30 12,4 C 93 % 1022,4 hPa 0,0 mm 0,0 km/h (0 Bft) S-SE 157 0 min 0 W/m 11,3 C 12,4 C 0,0 km/h (0 Bft)
30/10/2011 06:35 12,4 C 93 % 1022,3 hPa 0,0 mm 0,0 km/h (0 Bft) S-SE 157 0 min 0 W/m 11,3 C 12,4 C 0,0 km/h (0 Bft)
30/10/2011 06:40 12,4 C 93 % 1022,4 hPa 0,0 mm 0,0 km/h (0 Bft) S-SE 157 0 min 0 W/m 11,3 C 12,4 C 0,0 km/h (0 Bft)
30/10/2011 06:45 12,4 C 93 % 1022,3 hPa 0,0 mm 0,0 km/h (0 Bft) S-SE 157 0 min 0 W/m 11,3 C 12,4 C 0,0 km/h (0 Bft)
30/10/2011 06:50 12,4 C 93 % 1022,3 hPa 0,0 mm 0,0 km/h (0 Bft) S-SE 157 0 min 0 W/m 11,3 C 12,4 C 0,0 km/h (0 Bft)
30/10/2011 06:55 12,4 C 93 % 1022,3 hPa 0,0 mm 0,0 km/h (0 Bft) S-SE 157 0 min 0 W/m 11,3 C 12,4 C 0,0 km/h (0 Bft)
30/10/2011 07:00 12,4 C 93 % 1022,3 hPa 0,0 mm 0,0 km/h (0 Bft) S-SE 157 0 min 0 W/m 11,3 C 12,4 C 0,0 km/h (0 Bft)
30/10/2011 07:05 12,4 C 93 % 1022,2 hPa 0,0 mm 0,0 km/h (0 Bft) S-SE 157 0 min 0 W/m 11,3 C 12,4 C 0,0 km/h (0 Bft)
30/10/2011 07:10 12,4 C 93 % 1022,2 hPa 0,0 mm 0,0 km/h (0 Bft) S-SE 157 0 min 0 W/m 11,3 C 12,4 C 0,0 km/h (0 Bft)
30/10/2011 07:15 12,4 C 93 % 1022,2 hPa 0,0 mm 0,0 km/h (0 Bft) SE 135 0 min 0 W/m 11,3 C 12,4 C 0,0 km/h (0 Bft)
30/10/2011 07:20 12,4 C 93 % 1022,2 hPa 0,0 mm 0,0 km/h (0 Bft) SE 135 0 min 0 W/m 11,3 C 12,4 C 0,0 km/h (0 Bft)
30/10/2011 07:25 12,4 C 93 % 1022,2 hPa 0,0 mm 0,0 km/h (0 Bft) SE 135 0 min 0 W/m 11,3 C 12,4 C 0,0 km/h (0 Bft)
30/10/2011 07:30 12,4 C 93 % 1022,3 hPa 0,0 mm 0,0 km/h (0 Bft) SE 135 0 min 0 W/m 11,3 C 12,4 C 0,0 km/h (0 Bft)
30/10/2011 07:35 12,3 C 93 % 1022,3 hPa 0,0 mm 0,0 km/h (0 Bft) SE 135 0 min 0 W/m 11,2 C 12,3 C 0,0 km/h (0 Bft)
30/10/2011 07:40 12,3 C 93 % 1022,3 hPa 0,0 mm 0,0 km/h (0 Bft) SE 135 0 min 0 W/m 11,2 C 12,3 C 0,0 km/h (0 Bft)
30/10/2011 07:45 12,3 C 93 % 1022,4 hPa 0,0 mm 0,0 km/h (0 Bft) SE 135 0 min 0 W/m 11,2 C 12,3 C 0,0 km/h (0 Bft)
30/10/2011 07:50 12,3 C 93 % 1022,5 hPa 0,0 mm 0,0 km/h (0 Bft) SE 135 0 min 0 W/m 11,2 C 12,3 C 0,0 km/h (0 Bft)
30/10/2011 07:55 12,3 C 93 % 1022,6 hPa 0,0 mm 0,0 km/h (0 Bft) SE 135 0 min 0 W/m 11,2 C 12,3 C 0,0 km/h (0 Bft)
30/10/2011 08:00 12,3 C 93 % 1022,7 hPa 0,0 mm 0,0 km/h (0 Bft) SE 135 0 min 0 W/m 11,2 C 12,3 C 0,0 km/h (0 Bft)
30/10/2011 08:05 12,3 C 93 % 1022,7 hPa 0,0 mm 0,7 km/h (0 Bft) SE 135 0 min 0 W/m 11,2 C 12,3 C 0,7 km/h (0 Bft)
30/10/2011 08:10 12,4 C 93 % 1022,7 hPa 0,0 mm 0,0 km/h (0 Bft) SE 135 0 min 0 W/m 11,3 C 12,4 C 0,0 km/h (0 Bft)
30/10/2011 08:15 12,4 C 93 % 1022,8 hPa 0,0 mm 0,0 km/h (0 Bft) SE 135 0 min 0 W/m 11,3 C 12,4 C 0,0 km/h (0 Bft)
30/10/2011 08:20 12,4 C 93 % 1022,8 hPa 0,0 mm 0,0 km/h (0 Bft) SE 135 0 min 0 W/m 11,3 C 12,4 C 0,0 km/h (0 Bft)
30/10/2011 08:25 12,4 C 93 % 1022,8 hPa 0,0 mm 0,0 km/h (0 Bft) SE 135 0 min 0 W/m 11,3 C 12,4 C 0,0 km/h (0 Bft)
30/10/2011 08:30 12,5 C 94 % 1022,8 hPa 0,0 mm 0,0 km/h (0 Bft) SE 135 0 min 0 W/m 11,6 C 12,5 C 0,0 km/h (0 Bft)
30/10/2011 08:35 12,5 C 94 % 1022,8 hPa 0,0 mm 0,0 km/h (0 Bft) SE 135 0 min 0 W/m 11,6 C 12,5 C 0,0 km/h (0 Bft)
30/10/2011 08:40 12,5 C 94 % 1022,9 hPa 0,0 mm 0,0 km/h (0 Bft) SE 135 0 min 0 W/m 11,6 C 12,5 C 0,0 km/h (0 Bft)
30/10/2011 08:45 12,5 C 94 % 1022,9 hPa 0,0 mm 0,0 km/h (0 Bft) SE 135 0 min 0 W/m 11,6 C 12,5 C 0,0 km/h (0 Bft)
30/10/2011 08:50 12,6 C 94 % 1022,9 hPa 0,0 mm 0,0 km/h (0 Bft) SE 135 0 min 0 W/m 11,7 C 12,6 C 0,0 km/h (0 Bft)
30/10/2011 08:55 12,6 C 94 % 1022,9 hPa 0,0 mm 0,0 km/h (0 Bft) SE 135 0 min 0 W/m 11,7 C 12,6 C 0,0 km/h (0 Bft)
30/10/2011 09:00 12,6 C 94 % 1022,9 hPa 0,0 mm 0,0 km/h (0 Bft) SE 135 0 min 0 W/m 11,7 C 12,6 C 0,0 km/h (0 Bft)
30/10/2011 09:05 12,6 C 94 % 1023,0 hPa 0,0 mm 0,0 km/h (0 Bft) SE 135 0 min 0 W/m 11,7 C 12,6 C 0,0 km/h (0 Bft)
30/10/2011 09:10 12,8 C 94 % 1023,1 hPa 0,0 mm 0,0 km/h (0 Bft) SE 135 0 min 0 W/m 11,9 C 12,8 C 0,0 km/h (0 Bft)
30/10/2011 09:15 12,8 C 94 % 1023,1 hPa 0,0 mm 0,0 km/h (0 Bft) SE 135 0 min 0 W/m 11,9 C 12,8 C 0,0 km/h (0 Bft)
30/10/2011 09:20 12,8 C 94 % 1023,1 hPa 0,0 mm 0,0 km/h (0 Bft) SE 135 0 min 0 W/m 11,9 C 12,8 C 0,0 km/h (0 Bft)
30/10/2011 09:25 12,8 C 94 % 1023,2 hPa 0,0 mm 0,0 km/h (0 Bft) SE 135 0 min 0 W/m 11,9 C 12,8 C 0,0 km/h (0 Bft)
30/10/2011 09:30 12,9 C 94 % 1023,1 hPa 0,0 mm 0,0 km/h (0 Bft) SE 135 0 min 0 W/m 12,0 C 12,9 C 0,0 km/h (0 Bft)
30/10/2011 09:35 12,9 C 94 % 1023,1 hPa 0,0 mm 0,0 km/h (0 Bft) SE 135 0 min 0 W/m 12,0 C 12,9 C 0,0 km/h (0 Bft)
30/10/2011 09:40 13,1 C 94 % 1023,1 hPa 0,0 mm 0,4 km/h (0 Bft) SE 135 0 min 0 W/m 12,2 C 13,1 C 3,6 km/h (1 Bft)
30/10/2011 09:45 13,2 C 94 % 1023,2 hPa 0,0 mm 0,0 km/h (0 Bft) SE 135 0 min 0 W/m 12,3 C 13,2 C 0,0 km/h (0 Bft)
30/10/2011 09:50 13,3 C 94 % 1023,2 hPa 0,0 mm 0,0 km/h (0 Bft) SE 135 0 min 0 W/m 12,4 C 13,3 C 0,0 km/h (0 Bft)
30/10/2011 09:55 13,5 C 94 % 1023,2 hPa 0,0 mm 0,0 km/h (0 Bft) SE 135 0 min 0 W/m 12,6 C 13,5 C 0,0 km/h (0 Bft)
30/10/2011 10:00 13,8 C 94 % 1023,2 hPa 0,0 mm 0,0 km/h (0 Bft) SE 135 0 min 0 W/m 12,9 C 13,8 C 0,0 km/h (0 Bft)
30/10/2011 10:05 14,1 C 94 % 1023,2 hPa 0,0 mm 0,0 km/h (0 Bft) SE 135 0 min 0 W/m 13,1 C 14,1 C 0,0 km/h (0 Bft)
30/10/2011 10:10 14,4 C 94 % 1023,3 hPa 0,0 mm 0,0 km/h (0 Bft) E-SE 112 0 min 0 W/m 13,4 C 14,4 C 3,2 km/h (1 Bft)
30/10/2011 10:15 14,6 C 93 % 1023,3 hPa 0,0 mm 0,0 km/h (0 Bft) E-SE 112 0 min 0 W/m 13,5 C 14,6 C 0,0 km/h (0 Bft)
30/10/2011 10:20 14,9 C 93 % 1023,2 hPa 0,0 mm 0,0 km/h (0 Bft) E 90 0 min 0 W/m 13,8 C 14,9 C 3,2 km/h (1 Bft)
30/10/2011 10:25 15,4 C 93 % 1023,2 hPa 0,0 mm 0,4 km/h (0 Bft) NE 45 0 min 0 W/m 14,3 C 15,4 C 4,0 km/h (1 Bft)
30/10/2011 10:30 15,9 C 91 % 1023,3 hPa 0,0 mm 1,1 km/h (1 Bft) N-NE 22 0 min 0 W/m 14,4 C 15,9 C 3,6 km/h (1 Bft)
30/10/2011 10:35 16,2 C 89 % 1023,3 hPa 0,0 mm 0,4 km/h (0 Bft) N-NE 22 0 min 0 W/m 14,4 C 16,2 C 3,6 km/h (1 Bft)
30/10/2011 10:40 16,3 C 88 % 1023,3 hPa 0,0 mm 1,8 km/h (1 Bft) N-NE 22 0 min 0 W/m 14,3 C 16,3 C 4,3 km/h (1 Bft)
30/10/2011 10:45 16,3 C 88 % 1023,3 hPa 0,0 mm 2,9 km/h (1 Bft) N-NE 22 0 min 0 W/m 14,3 C 16,3 C 4,3 km/h (1 Bft)
30/10/2011 10:50 16,4 C 87 % 1023,3 hPa 0,0 mm 2,2 km/h (1 Bft) N-NE 22 0 min 0 W/m 14,2 C 16,4 C 3,6 km/h (1 Bft)
30/10/2011 10:55 16,6 C 87 % 1023,4 hPa 0,0 mm 0,7 km/h (0 Bft) N-NE 22 0 min 0 W/m 14,4 C 16,6 C 4,3 km/h (1 Bft)
30/10/2011 11:00 16,6 C 86 % 1023,3 hPa 0,0 mm 2,2 km/h (1 Bft) N-NE 22 0 min 0 W/m 14,2 C 16,6 C 3,6 km/h (1 Bft)
30/10/2011 11:05 16,6 C 86 % 1023,3 hPa 0,0 mm 0,0 km/h (0 Bft) N-NE 22 0 min 0 W/m 14,2 C 16,6 C 0,0 km/h (0 Bft)
30/10/2011 11:10 16,7 C 86 % 1023,3 hPa 0,0 mm 2,2 km/h (1 Bft) N-NE 22 0 min 0 W/m 14,3 C 16,7 C 4,3 km/h (1 Bft)
30/10/2011 11:15 16,6 C 86 % 1023,3 hPa 0,0 mm 0,0 km/h (0 Bft) N-NE 22 0 min 0 W/m 14,2 C 16,6 C 0,0 km/h (0 Bft)
30/10/2011 11:20 16,6 C 86 % 1023,3 hPa 0,0 mm 0,0 km/h (0 Bft) N-NE 22 0 min 0 W/m 14,2 C 16,6 C 0,0 km/h (0 Bft)
30/10/2011 11:25 16,6 C 86 % 1023,3 hPa 0,0 mm 0,4 km/h (0 Bft) N-NE 22 0 min 0 W/m 14,2 C 16,6 C 0,4 km/h (0 Bft)
30/10/2011 11:30 16,8 C 86 % 1023,2 hPa 0,0 mm 0,0 km/h (0 Bft) N-NE 22 0 min 0 W/m 14,4 C 16,8 C 0,0 km/h (0 Bft)
30/10/2011 11:35 16,8 C 86 % 1023,3 hPa 0,0 mm 1,8 km/h (1 Bft) N 360 0 min 0 W/m 14,4 C 16,8 C 4,0 km/h (1 Bft)
30/10/2011 11:40 16,7 C 85 % 1023,2 hPa 0,0 mm 1,4 km/h (1 Bft) N 360 0 min 0 W/m 14,2 C 16,7 C 3,2 km/h (1 Bft)
30/10/2011 11:45 16,8 C 85 % 1023,2 hPa 0,0 mm 0,0 km/h (0 Bft) N 360 0 min 0 W/m 14,3 C 16,8 C 0,0 km/h (0 Bft)
30/10/2011 11:50 16,8 C 85 % 1023,0 hPa 0,0 mm 0,0 km/h (0 Bft) N 360 0 min 0 W/m 14,3 C 16,8 C 0,0 km/h (0 Bft)
30/10/2011 11:55 16,7 C 85 % 1023,0 hPa 0,0 mm 0,4 km/h (0 Bft) N 360 0 min 0 W/m 14,2 C 16,7 C 0,4 km/h (0 Bft)
30/10/2011 12:00 16,8 C 85 % 1023,0 hPa 0,0 mm 0,0 km/h (0 Bft) N 360 0 min 0 W/m 14,3 C 16,8 C 1,4 km/h (1 Bft)
30/10/2011 12:05 16,7 C 85 % 1023,0 hPa 0,0 mm 0,0 km/h (0 Bft) N 360 0 min 0 W/m 14,2 C 16,7 C 0,0 km/h (0 Bft)
30/10/2011 12:10 16,7 C 85 % 1023,0 hPa 0,0 mm 0,0 km/h (0 Bft) N 360 0 min 0 W/m 14,2 C 16,7 C 0,0 km/h (0 Bft)
30/10/2011 12:15 16,6 C 85 % 1022,9 hPa 0,0 mm 0,0 km/h (0 Bft) N 360 0 min 0 W/m 14,1 C 16,6 C 0,0 km/h (0 Bft)
30/10/2011 12:20 16,6 C 85 % 1022,8 hPa 0,0 mm 0,0 km/h (0 Bft) N 360 0 min 0 W/m 14,1 C 16,6 C 0,0 km/h (0 Bft)
30/10/2011 12:25 16,6 C 85 % 1022,9 hPa 0,0 mm 0,0 km/h (0 Bft) N 360 0 min 0 W/m 14,1 C 16,6 C 0,0 km/h (0 Bft)
30/10/2011 12:30 16,6 C 85 % 1022,7 hPa 0,0 mm 0,0 km/h (0 Bft) N 360 0 min 0 W/m 14,1 C 16,6 C 1,4 km/h (1 Bft)
30/10/2011 12:35 16,5 C 85 % 1022,7 hPa 0,0 mm 0,0 km/h (0 Bft) N-NE 22 0 min 0 W/m 14,0 C 16,5 C 0,0 km/h (0 Bft)
30/10/2011 12:40 16,5 C 84 % 1022,7 hPa 0,0 mm 0,0 km/h (0 Bft) N-NE 22 0 min 0 W/m 13,8 C 16,5 C 0,0 km/h (0 Bft)
30/10/2011 12:45 16,5 C 85 % 1022,6 hPa 0,0 mm 0,0 km/h (0 Bft) N-NE 22 0 min 0 W/m 14,0 C 16,5 C 0,0 km/h (0 Bft)
30/10/2011 12:50 16,6 C 85 % 1022,5 hPa 0,0 mm 0,7 km/h (0 Bft) N-NE 22 0 min 0 W/m 14,1 C 16,6 C 0,7 km/h (0 Bft)
30/10/2011 12:55 16,6 C 85 % 1022,5 hPa 0,0 mm 0,4 km/h (0 Bft) N-NE 22 0 min 0 W/m 14,1 C 16,6 C 2,9 km/h (1 Bft)
30/10/2011 13:00 16,6 C 84 % 1022,5 hPa 0,0 mm 0,0 km/h (0 Bft) N-NE 22 0 min 0 W/m 13,9 C 16,6 C 0,0 km/h (0 Bft)
30/10/2011 13:05 16,7 C 84 % 1022,4 hPa 0,0 mm 0,0 km/h (0 Bft) N-NE 22 0 min 0 W/m 14,0 C 16,7 C 0,0 km/h (0 Bft)
30/10/2011 13:10 16,8 C 84 % 1022,3 hPa 0,0 mm 0,0 km/h (0 Bft) N-NE 22 0 min 0 W/m 14,1 C 16,8 C 0,0 km/h (0 Bft)
30/10/2011 13:15 16,9 C 84 % 1022,3 hPa 0,0 mm 0,4 km/h (0 Bft) N-NE 22 0 min 0 W/m 14,2 C 16,9 C 3,2 km/h (1 Bft)
30/10/2011 13:20 17,0 C 83 % 1022,2 hPa 0,0 mm 0,0 km/h (0 Bft) N-NE 22 0 min 0 W/m 14,1 C 17,0 C 0,0 km/h (0 Bft)
30/10/2011 13:25 17,3 C 83 % 1022,3 hPa 0,0 mm 1,1 km/h (1 Bft) N-NE 22 0 min 0 W/m 14,4 C 17,3 C 3,2 km/h (1 Bft)
30/10/2011 13:30 17,7 C 82 % 1022,3 hPa 0,0 mm 0,0 km/h (0 Bft) N-NE 22 0 min 0 W/m 14,6 C 17,7 C 3,2 km/h (1 Bft)
30/10/2011 13:35 18,0 C 79 % 1022,3 hPa 0,0 mm 0,7 km/h (0 Bft) N-NE 22 0 min 0 W/m 14,3 C 18,0 C 3,2 km/h (1 Bft)
30/10/2011 13:40 18,1 C 78 % 1022,2 hPa 0,0 mm 2,2 km/h (1 Bft) E-NE 67 0 min 0 W/m 14,2 C 18,1 C 4,3 km/h (1 Bft)
30/10/2011 13:45 18,2 C 76 % 1022,2 hPa 0,0 mm 0,0 km/h (0 Bft) E-NE 67 0 min 0 W/m 13,9 C 18,2 C 0,0 km/h (0 Bft)
30/10/2011 13:50 18,2 C 77 % 1022,0 hPa 0,0 mm 0,0 km/h (0 Bft) E-NE 67 0 min 0 W/m 14,1 C 18,2 C 0,0 km/h (0 Bft)
30/10/2011 13:55 18,2 C 77 % 1022,0 hPa 0,0 mm 0,4 km/h (0 Bft) N-NO 337 0 min 0 W/m 14,1 C 18,2 C 4,0 km/h (1 Bft)
30/10/2011 14:00 18,4 C 75 % 1022,0 hPa 0,0 mm 0,0 km/h (0 Bft) N-NO 337 0 min 0 W/m 13,9 C 18,4 C 0,0 km/h (0 Bft)
30/10/2011 14:05 18,6 C 74 % 1021,9 hPa 0,0 mm 1,1 km/h (1 Bft) N 360 0 min 0 W/m 13,9 C 18,6 C 1,1 km/h (1 Bft)
30/10/2011 14:10 18,6 C 74 % 1021,9 hPa 0,0 mm 0,0 km/h (0 Bft) N 360 0 min 0 W/m 13,9 C 18,6 C 0,0 km/h (0 Bft)
30/10/2011 14:15 18,6 C 71 % 1021,8 hPa 0,0 mm 0,0 km/h (0 Bft) N-NO 337 0 min 0 W/m 13,2 C 18,6 C 0,0 km/h (0 Bft)
30/10/2011 14:20 18,6 C 72 % 1021,7 hPa 0,0 mm 0,0 km/h (0 Bft) N-NO 337 0 min 0 W/m 13,4 C 18,6 C 0,0 km/h (0 Bft)
30/10/2011 14:25 18,6 C 71 % 1021,6 hPa 0,0 mm 0,0 km/h (0 Bft) N-NO 337 0 min 0 W/m 13,2 C 18,6 C 0,0 km/h (0 Bft)
30/10/2011 14:30 18,6 C 70 % 1021,5 hPa 0,0 mm 0,0 km/h (0 Bft) N-NO 337 0 min 0 W/m 13,0 C 18,6 C 0,0 km/h (0 Bft)
30/10/2011 14:35 18,6 C 70 % 1021,4 hPa 0,0 mm 0,0 km/h (0 Bft) N-NO 337 0 min 0 W/m 13,0 C 18,6 C 0,0 km/h (0 Bft)
30/10/2011 14:40 18,6 C 69 % 1021,4 hPa 0,0 mm 0,0 km/h (0 Bft) N-NO 337 0 min 0 W/m 12,8 C 18,6 C 0,0 km/h (0 Bft)
30/10/2011 14:45 18,6 C 69 % 1022,4 hPa 0,0 mm 0,0 km/h (0 Bft) N-NO 337 0 min 0 W/m 12,8 C 18,6 C 0,0 km/h (0 Bft)
30/10/2011 14:50 18,5 C 69 % 1022,4 hPa 0,0 mm 0,0 km/h (0 Bft) N-NO 337 0 min 0 W/m 12,7 C 18,5 C 0,0 km/h (0 Bft)
30/10/2011 14:55 18,6 C 68 % 1022,2 hPa 0,0 mm 0,0 km/h (0 Bft) N-NO 337 0 min 0 W/m 12,6 C 18,6 C 0,0 km/h (0 Bft)
30/10/2011 15:00 18,6 C 68 % 1022,2 hPa 0,0 mm 0,0 km/h (0 Bft) N-NO 337 0 min 0 W/m 12,6 C 18,6 C 0,0 km/h (0 Bft)
30/10/2011 15:05 18,5 C 69 % 1022,2 hPa 0,0 mm 0,0 km/h (0 Bft) O-NO 292 0 min 0 W/m 12,7 C 18,5 C 0,0 km/h (0 Bft)
30/10/2011 15:10 18,6 C 69 % 1022,2 hPa 0,0 mm 0,0 km/h (0 Bft) O-NO 292 0 min 0 W/m 12,8 C 18,6 C 0,0 km/h (0 Bft)
30/10/2011 15:15 18,6 C 68 % 1022,2 hPa 0,0 mm 0,0 km/h (0 Bft) N-NE 22 0 min 0 W/m 12,6 C 18,6 C 1,4 km/h (1 Bft)
30/10/2011 15:20 18,7 C 69 % 1022,0 hPa 0,0 mm 0,0 km/h (0 Bft) N-NO 337 0 min 0 W/m 12,9 C 18,7 C 0,0 km/h (0 Bft)
30/10/2011 15:25 18,8 C 68 % 1022,1 hPa 0,0 mm 2,2 km/h (1 Bft) NE 45 0 min 0 W/m 12,8 C 18,8 C 3,2 km/h (1 Bft)
30/10/2011 15:30 18,8 C 69 % 1022,0 hPa 0,0 mm 1,1 km/h (1 Bft) N-NE 22 0 min 0 W/m 13,0 C 18,8 C 3,6 km/h (1 Bft)
30/10/2011 15:35 18,6 C 69 % 1022,0 hPa 0,0 mm 0,7 km/h (0 Bft) N-NE 22 0 min 0 W/m 12,8 C 18,6 C 3,6 km/h (1 Bft)
30/10/2011 15:40 18,6 C 69 % 1022,0 hPa 0,0 mm 0,0 km/h (0 Bft) N-NE 22 0 min 0 W/m 12,8 C 18,6 C 0,0 km/h (0 Bft)
30/10/2011 15:45 18,6 C 70 % 1021,9 hPa 0,0 mm 0,0 km/h (0 Bft) N-NE 22 0 min 0 W/m 13,0 C 18,6 C 0,0 km/h (0 Bft)
30/10/2011 15:50 18,6 C 70 % 1022,0 hPa 0,0 mm 1,4 km/h (1 Bft) N-NE 22 0 min 0 W/m 13,0 C 18,6 C 4,0 km/h (1 Bft)
30/10/2011 15:55 18,5 C 70 % 1021,9 hPa 0,0 mm 0,0 km/h (0 Bft) N 360 0 min 0 W/m 12,9 C 18,5 C 0,0 km/h (0 Bft)
30/10/2011 16:00 18,4 C 69 % 1021,9 hPa 0,0 mm 0,0 km/h (0 Bft) N 360 0 min 0 W/m 12,6 C 18,4 C 0,0 km/h (0 Bft)
30/10/2011 16:05 18,4 C 70 % 1021,9 hPa 0,0 mm 0,0 km/h (0 Bft) N 360 0 min 0 W/m 12,8 C 18,4 C 0,0 km/h (0 Bft)
30/10/2011 16:10 18,5 C 69 % 1021,9 hPa 0,0 mm 0,0 km/h (0 Bft) N 360 0 min 0 W/m 12,7 C 18,5 C 0,0 km/h (0 Bft)
30/10/2011 16:15 18,5 C 70 % 1021,9 hPa 0,0 mm 0,0 km/h (0 Bft) N 360 0 min 0 W/m 12,9 C 18,5 C 0,0 km/h (0 Bft)
30/10/2011 16:20 18,5 C 69 % 1021,9 hPa 0,0 mm 0,0 km/h (0 Bft) N 360 0 min 0 W/m 12,7 C 18,5 C 0,0 km/h (0 Bft)
30/10/2011 16:25 18,4 C 70 % 1021,8 hPa 0,0 mm 0,0 km/h (0 Bft) N 360 0 min 0 W/m 12,8 C 18,4 C 0,0 km/h (0 Bft)
30/10/2011 16:30 18,5 C 70 % 1021,8 hPa 0,0 mm 0,0 km/h (0 Bft) N 360 0 min 0 W/m 12,9 C 18,5 C 0,0 km/h (0 Bft)
30/10/2011 16:35 18,4 C 70 % 1021,7 hPa 0,0 mm 0,0 km/h (0 Bft) N 360 0 min 0 W/m 12,8 C 18,4 C 0,0 km/h (0 Bft)
30/10/2011 16:40 18,3 C 70 % 1021,7 hPa 0,0 mm 0,0 km/h (0 Bft) N-NE 22 0 min 0 W/m 12,7 C 18,3 C 0,0 km/h (0 Bft)
30/10/2011 16:45 18,2 C 70 % 1021,6 hPa 0,0 mm 0,0 km/h (0 Bft) N 360 0 min 0 W/m 12,6 C 18,2 C 0,0 km/h (0 Bft)
30/10/2011 16:50 18,0 C 71 % 1021,7 hPa 0,0 mm 0,0 km/h (0 Bft) N 360 0 min 0 W/m 12,7 C 18,0 C 0,0 km/h (0 Bft)
30/10/2011 16:55 17,9 C 71 % 1021,7 hPa 0,0 mm 0,0 km/h (0 Bft) N 360 0 min 0 W/m 12,6 C 17,9 C 0,0 km/h (0 Bft)
30/10/2011 17:00 17,8 C 72 % 1021,6 hPa 0,0 mm 0,0 km/h (0 Bft) N 360 0 min 0 W/m 12,7 C 17,8 C 0,0 km/h (0 Bft)
30/10/2011 17:05 17,6 C 73 % 1021,6 hPa 0,0 mm 0,0 km/h (0 Bft) N 360 0 min 0 W/m 12,7 C 17,6 C 0,0 km/h (0 Bft)
30/10/2011 17:10 17,4 C 73 % 1021,6 hPa 0,0 mm 0,0 km/h (0 Bft) N 360 0 min 0 W/m 12,5 C 17,4 C 0,0 km/h (0 Bft)
30/10/2011 17:15 17,2 C 73 % 1021,6 hPa 0,0 mm 0,0 km/h (0 Bft) N 360 0 min 0 W/m 12,3 C 17,2 C 0,0 km/h (0 Bft)
30/10/2011 17:20 16,9 C 73 % 1021,5 hPa 0,0 mm 0,0 km/h (0 Bft) N 360 0 min 0 W/m 12,0 C 16,9 C 0,0 km/h (0 Bft)
30/10/2011 17:25 16,8 C 74 % 1021,5 hPa 0,0 mm 0,0 km/h (0 Bft) N 360 0 min 0 W/m 12,1 C 16,8 C 0,0 km/h (0 Bft)
30/10/2011 17:30 16,5 C 74 % 1021,5 hPa 0,0 mm 0,0 km/h (0 Bft) N 360 0 min 0 W/m 11,8 C 16,5 C 0,0 km/h (0 Bft)
30/10/2011 17:35 16,3 C 75 % 1021,5 hPa 0,0 mm 0,0 km/h (0 Bft) N 360 0 min 0 W/m 11,9 C 16,3 C 0,0 km/h (0 Bft)
30/10/2011 17:40 16,0 C 75 % 1021,5 hPa 0,0 mm 0,0 km/h (0 Bft) N 360 0 min 0 W/m 11,6 C 16,0 C 0,0 km/h (0 Bft)
30/10/2011 17:45 15,7 C 76 % 1021,5 hPa 0,0 mm 0,0 km/h (0 Bft) N 360 0 min 0 W/m 11,5 C 15,7 C 0,0 km/h (0 Bft)
30/10/2011 17:50 15,4 C 77 % 1021,4 hPa 0,0 mm 0,0 km/h (0 Bft) N 360 0 min 0 W/m 11,4 C 15,4 C 0,0 km/h (0 Bft)
30/10/2011 17:55 15,1 C 77 % 1021,5 hPa 0,0 mm 0,0 km/h (0 Bft) N 360 0 min 0 W/m 11,1 C 15,1 C 0,0 km/h (0 Bft)
30/10/2011 18:00 14,8 C 77 % 1021,5 hPa 0,0 mm 0,0 km/h (0 Bft) N 360 0 min 0 W/m 10,8 C 14,8 C 0,0 km/h (0 Bft)
30/10/2011 18:05 14,6 C 78 % 1021,4 hPa 0,0 mm 0,0 km/h (0 Bft) N 360 0 min 0 W/m 10,8 C 14,6 C 0,0 km/h (0 Bft)
30/10/2011 18:10 14,3 C 79 % 1021,4 hPa 0,0 mm 0,0 km/h (0 Bft) N 360 0 min 0 W/m 10,7 C 14,3 C 0,0 km/h (0 Bft)
30/10/2011 18:15 13,9 C 79 % 1021,4 hPa 0,0 mm 0,0 km/h (0 Bft) N 360 0 min 0 W/m 10,3 C 13,9 C 0,0 km/h (0 Bft)
30/10/2011 18:20 13,7 C 80 % 1021,5 hPa 0,0 mm 0,0 km/h (0 Bft) N 360 0 min 0 W/m 10,3 C 13,7 C 0,0 km/h (0 Bft)
30/10/2011 18:25 13,4 C 80 % 1021,5 hPa 0,0 mm 0,0 km/h (0 Bft) N 360 0 min 0 W/m 10,0 C 13,4 C 0,0 km/h (0 Bft)
30/10/2011 18:30 13,2 C 81 % 1021,5 hPa 0,0 mm 0,0 km/h (0 Bft) N 360 0 min 0 W/m 10,0 C 13,2 C 0,0 km/h (0 Bft)
30/10/2011 18:35 13,0 C 81 % 1021,5 hPa 0,0 mm 0,0 km/h (0 Bft) N 360 0 min 0 W/m 9,8 C 13,0 C 0,0 km/h (0 Bft)
30/10/2011 18:40 12,8 C 81 % 1021,6 hPa 0,0 mm 0,0 km/h (0 Bft) N 360 0 min 0 W/m 9,6 C 12,8 C 0,0 km/h (0 Bft)
30/10/2011 18:45 12,5 C 82 % 1021,5 hPa 0,0 mm 0,0 km/h (0 Bft) N 360 0 min 0 W/m 9,5 C 12,5 C 0,0 km/h (0 Bft)
30/10/2011 18:50 12,3 C 82 % 1021,6 hPa 0,0 mm 0,0 km/h (0 Bft) N 360 0 min 0 W/m 9,3 C 12,3 C 0,0 km/h (0 Bft)
30/10/2011 18:55 12,2 C 83 % 1021,6 hPa 0,0 mm 0,0 km/h (0 Bft) N 360 0 min 0 W/m 9,4 C 12,2 C 0,0 km/h (0 Bft)
30/10/2011 19:00 11,9 C 83 % 1021,6 hPa 0,0 mm 0,0 km/h (0 Bft) N 360 0 min 0 W/m 9,1 C 11,9 C 0,0 km/h (0 Bft)
30/10/2011 19:05 11,8 C 83 % 1021,7 hPa 0,0 mm 0,0 km/h (0 Bft) N 360 0 min 0 W/m 9,0 C 11,8 C 0,0 km/h (0 Bft)
30/10/2011 19:10 11,7 C 84 % 1021,7 hPa 0,0 mm 0,0 km/h (0 Bft) N 360 0 min 0 W/m 9,1 C 11,7 C 0,0 km/h (0 Bft)
30/10/2011 19:15 11,6 C 84 % 1021,6 hPa 0,0 mm 0,0 km/h (0 Bft) N 360 0 min 0 W/m 9,0 C 11,6 C 0,0 km/h (0 Bft)
30/10/2011 19:20 11,5 C 85 % 1021,7 hPa 0,0 mm 0,0 km/h (0 Bft) N 360 0 min 0 W/m 9,1 C 11,5 C 0,0 km/h (0 Bft)
30/10/2011 19:25 11,4 C 85 % 1021,6 hPa 0,0 mm 0,0 km/h (0 Bft) N 360 0 min 0 W/m 9,0 C 11,4 C 0,0 km/h (0 Bft)
30/10/2011 19:30 11,3 C 85 % 1021,6 hPa 0,0 mm 0,0 km/h (0 Bft) N 360 0 min 0 W/m 8,9 C 11,3 C 0,0 km/h (0 Bft)
30/10/2011 19:35 11,2 C 86 % 1020,6 hPa 0,0 mm 0,0 km/h (0 Bft) N 360 0 min 0 W/m 8,9 C 11,2 C 0,0 km/h (0 Bft)
30/10/2011 19:40 11,1 C 86 % 1020,6 hPa 0,0 mm 0,0 km/h (0 Bft) N 360 0 min 0 W/m 8,8 C 11,1 C 0,0 km/h (0 Bft)
30/10/2011 19:45 10,9 C 86 % 1020,6 hPa 0,0 mm 0,0 km/h (0 Bft) N 360 0 min 0 W/m 8,7 C 10,9 C 0,0 km/h (0 Bft)
30/10/2011 19:50 10,9 C 86 % 1020,6 hPa 0,0 mm 0,0 km/h (0 Bft) N 360 0 min 0 W/m 8,7 C 10,9 C 0,0 km/h (0 Bft)
30/10/2011 19:55 10,8 C 87 % 1020,6 hPa 0,0 mm 0,0 km/h (0 Bft) N 360 0 min 0 W/m 8,7 C 10,8 C 0,0 km/h (0 Bft)
30/10/2011 20:00 10,8 C 87 % 1020,5 hPa 0,0 mm 0,0 km/h (0 Bft) N 360 0 min 0 W/m 8,7 C 10,8 C 0,0 km/h (0 Bft)
30/10/2011 20:05 10,6 C 87 % 1020,6 hPa 0,0 mm 0,0 km/h (0 Bft) N 360 0 min 0 W/m 8,5 C 10,6 C 0,0 km/h (0 Bft)
30/10/2011 20:10 10,6 C 87 % 1020,6 hPa 0,0 mm 0,0 km/h (0 Bft) N 360 0 min 0 W/m 8,5 C 10,6 C 0,0 km/h (0 Bft)
30/10/2011 20:15 10,5 C 87 % 1020,5 hPa 0,0 mm 0,0 km/h (0 Bft) N 360 0 min 0 W/m 8,4 C 10,5 C 0,0 km/h (0 Bft)
30/10/2011 20:20 10,4 C 87 % 1020,6 hPa 0,0 mm 0,0 km/h (0 Bft) N 360 0 min 0 W/m 8,3 C 10,4 C 0,0 km/h (0 Bft)
30/10/2011 20:25 10,3 C 87 % 1020,5 hPa 0,0 mm 0,0 km/h (0 Bft) N 360 0 min 0 W/m 8,2 C 10,3 C 0,0 km/h (0 Bft)
30/10/2011 20:30 10,2 C 87 % 1020,5 hPa 0,0 mm 0,0 km/h (0 Bft) N 360 0 min 0 W/m 8,1 C 10,2 C 0,0 km/h (0 Bft)
30/10/2011 20:35 10,1 C 88 % 1020,5 hPa 0,0 mm 0,0 km/h (0 Bft) N 360 0 min 0 W/m 8,2 C 10,1 C 0,0 km/h (0 Bft)
30/10/2011 20:40 10,1 C 88 % 1020,5 hPa 0,0 mm 0,0 km/h (0 Bft) N 360 0 min 0 W/m 8,2 C 10,1 C 0,0 km/h (0 Bft)
30/10/2011 20:45 10,1 C 88 % 1020,4 hPa 0,0 mm 0,0 km/h (0 Bft) N 360 0 min 0 W/m 8,2 C 10,1 C 0,0 km/h (0 Bft)
30/10/2011 20:50 10,1 C 89 % 1020,5 hPa 0,0 mm 0,0 km/h (0 Bft) N 360 0 min 0 W/m 8,4 C 10,1 C 0,0 km/h (0 Bft)
30/10/2011 20:55 10,1 C 89 % 1020,5 hPa 0,0 mm 0,0 km/h (0 Bft) N 360 0 min 0 W/m 8,4 C 10,1 C 0,0 km/h (0 Bft)
30/10/2011 21:00 10,1 C 89 % 1020,4 hPa 0,0 mm 0,0 km/h (0 Bft) N 360 0 min 0 W/m 8,4 C 10,1 C 0,0 km/h (0 Bft)
30/10/2011 21:05 10,1 C 90 % 1020,5 hPa 0,0 mm 0,0 km/h (0 Bft) N 360 0 min 0 W/m 8,5 C 10,1 C 0,0 km/h (0 Bft)
30/10/2011 21:10 9,9 C 90 % 1020,5 hPa 0,0 mm 0,0 km/h (0 Bft) N 360 0 min 0 W/m 8,3 C 9,9 C 0,0 km/h (0 Bft)
30/10/2011 21:15 9,8 C 90 % 1020,4 hPa 0,0 mm 0,0 km/h (0 Bft) N 360 0 min 0 W/m 8,2 C 9,8 C 0,0 km/h (0 Bft)
30/10/2011 21:20 9,8 C 90 % 1020,4 hPa 0,0 mm 0,0 km/h (0 Bft) N 360 0 min 0 W/m 8,2 C 9,8 C 0,0 km/h (0 Bft)
30/10/2011 21:25 9,8 C 90 % 1020,4 hPa 0,0 mm 0,0 km/h (0 Bft) N 360 0 min 0 W/m 8,2 C 9,8 C 0,0 km/h (0 Bft)
30/10/2011 21:30 9,7 C 90 % 1020,4 hPa 0,0 mm 0,0 km/h (0 Bft) N 360 0 min 0 W/m 8,1 C 9,7 C 0,0 km/h (0 Bft)
30/10/2011 21:35 9,6 C 90 % 1020,3 hPa 0,0 mm 0,0 km/h (0 Bft) N 360 0 min 0 W/m 8,0 C 9,6 C 0,0 km/h (0 Bft)
30/10/2011 21:40 9,6 C 90 % 1020,3 hPa 0,0 mm 0,0 km/h (0 Bft) N 360 0 min 0 W/m 8,0 C 9,6 C 0,0 km/h (0 Bft)
30/10/2011 21:45 9,6 C 90 % 1020,3 hPa 0,0 mm 0,0 km/h (0 Bft) N 360 0 min 0 W/m 8,0 C 9,6 C 0,0 km/h (0 Bft)
30/10/2011 21:50 9,6 C 91 % 1020,3 hPa 0,0 mm 0,0 km/h (0 Bft) N 360 0 min 0 W/m 8,2 C 9,6 C 0,0 km/h (0 Bft)
30/10/2011 21:55 9,6 C 91 % 1020,2 hPa 0,0 mm 0,0 km/h (0 Bft) N 360 0 min 0 W/m 8,2 C 9,6 C 0,0 km/h (0 Bft)
30/10/2011 22:00 9,5 C 91 % 1020,2 hPa 0,0 mm 0,0 km/h (0 Bft) N 360 0 min 0 W/m 8,1 C 9,5 C 0,0 km/h (0 Bft)
30/10/2011 22:05 9,6 C 91 % 1020,2 hPa 0,0 mm 0,0 km/h (0 Bft) N-NE 22 0 min 0 W/m 8,2 C 9,6 C 0,0 km/h (0 Bft)
30/10/2011 22:10 9,7 C 91 % 1020,2 hPa 0,0 mm 0,0 km/h (0 Bft) N-NE 22 0 min 0 W/m 8,3 C 9,7 C 0,0 km/h (0 Bft)
30/10/2011 22:15 9,8 C 92 % 1020,1 hPa 0,0 mm 0,0 km/h (0 Bft) N-NE 22 0 min 0 W/m 8,6 C 9,8 C 0,0 km/h (0 Bft)
30/10/2011 22:20 9,8 C 92 % 1020,1 hPa 0,0 mm 0,0 km/h (0 Bft) N-NE 22 0 min 0 W/m 8,6 C 9,8 C 0,0 km/h (0 Bft)
30/10/2011 22:25 9,8 C 91 % 1020,1 hPa 0,0 mm 0,0 km/h (0 Bft) N-NE 22 0 min 0 W/m 8,4 C 9,8 C 0,0 km/h (0 Bft)
30/10/2011 22:30 9,8 C 91 % 1020,1 hPa 0,0 mm 0,0 km/h (0 Bft) N-NE 22 0 min 0 W/m 8,4 C 9,8 C 0,0 km/h (0 Bft)
30/10/2011 22:35 9,6 C 91 % 1020,0 hPa 0,0 mm 0,0 km/h (0 Bft) N-NE 22 0 min 0 W/m 8,2 C 9,6 C 0,0 km/h (0 Bft)
30/10/2011 22:40 9,4 C 91 % 1019,9 hPa 0,0 mm 0,0 km/h (0 Bft) N-NE 22 0 min 0 W/m 8,0 C 9,4 C 0,0 km/h (0 Bft)
30/10/2011 22:45 9,4 C 91 % 1019,8 hPa 0,0 mm 0,0 km/h (0 Bft) N-NE 22 0 min 0 W/m 8,0 C 9,4 C 0,0 km/h (0 Bft)
30/10/2011 22:50 9,3 C 91 % 1019,7 hPa 0,0 mm 0,0 km/h (0 Bft) N-NE 22 0 min 0 W/m 7,9 C 9,3 C 0,0 km/h (0 Bft)
30/10/2011 22:55 9,2 C 91 % 1019,7 hPa 0,0 mm 0,0 km/h (0 Bft) N 360 0 min 0 W/m 7,8 C 9,2 C 0,0 km/h (0 Bft)
30/10/2011 23:00 9,1 C 91 % 1019,7 hPa 0,0 mm 0,0 km/h (0 Bft) NE 45 0 min 0 W/m 7,7 C 9,1 C 0,0 km/h (0 Bft)
_ Min-Heure 23:00 15:25 23:00 - 23:00 - - - - 23:00 23:00 23:00
Minimum _ 9,1 C 68 % 1019,7 hPa - 0,0 km/h (0 Bft) - - - - 7,7 C 9,1 C 0,0 km/h (0 Bft)
_ Max-Heure 15:30 10:10 10:55 23:00 10:45 - - 23:00 23:00 13:30 15:30 13:40
Maximum _ 18,8 C 94 % 1023,4 hPa 0,0 mm 2,9 km/h
N-NE (1 Bft)
- - 0 min 0 W/m 14,6 C 18,8 C 4,3 km/h
E-NE (1 Bft)
Moyenne _ 13,8 C 87 % 1022,1 hPa #0,0 mm 0,1 km/h (0 Bft) N - #0 min. 0 W/m 11,5 C 13,8 C 0,3 km/h (0 Bft)
Saint Bonnet de Bellac- Haute Vienne - France